Location: Newark
(42.8481°N, 0.4872°E)
Time: 09:23:36
(UTC+00:00)

A-11 Canister half - Pass Details

Date: 27 October 2020
Orbit: 1516 x 1684 km, 47.2° (Epoch: 04 December)

Event Time Altitude Azimuth Distance (km) Brightness Sun altitude
Rises 18:52:20 0° 205° (SSW) 4,922 12.0 -21.7°
Reaches altitude 10° 18:55:48 10° 198° (SSW) 3,937 11.3 -22.4°
Maximum altitude 19:04:48 38° 135° (SE) 2,360 9.6 -24.0°
Enters shadow 19:06:30 36° 115° (ESE) 2,430 9.5 -24.3°
